[[{"header":{"parameterUnit":"m.s-1","parameterCategory":2,"la1":30.2991,"la2":30.254,"lo1":-89.0895,"lo2":-89.0444,"dy":0.0017,"dx":0.0017,"nx":28,"ny":28,"refTime":"2025-11-10T09:00:00:Z","depth":"0","parameterNumber":2,"parameterNumberName":"U-component_of_CURRENTS"},"data":[0,0,0,0,0,0,0,0,0,0,0,0,0,0,0,0,0,0,0,0,0,0,0,0,0,0,0,0,0,0,0,0,0,0,0,0,0,0,0,0,0,0,0,0,0,0,0,0,0,0,0,0,0,0,0,0,0,0,0.3713,0.3714,0,0.3811,0.3812,0.3812,0.3864,0.3865,0.3866,0.3867,0.3844,0.3843,0.3842,0,0,0,0,0,0,0,0,0,0,0,0,0,0.3579,0.3581,0.3713,0.3715,0.3716,0.3811,0.3812,0.3812,0.3864,0.3865,0.3866,0.3867,0.3845,0.3843,0.3842,0,0,0,0,0,0,0,0,0,0,0,0,0,0.3646,0.3581,0.3712,0.3759,0.3765,0.3811,0.3812,0.3812,0.3864,0.3865,0.3866,0.3867,0.3845,0.3843,0.3841,0.3806,0,0,0.3835,0.3835,0,0,0,0,0,0,0,0,0.3642,0.365,0.375,0.3756,0.3763,0.3833,0.3757,0.3807,0.3864,0.3819,0.3867,0.3868,0.3833,0.3832,0.384,0.3805,0.3804,0.3835,0.3834,0.3833,0.3833,0,0,0,0,0,0,0,0.3638,0.3646,0.3744,0.3752,0.376,0.3779,0.3789,0.3767,0.381,0.3823,0.3829,0.3851,0.3835,0.3841,0.3839,0.3804,0.3835,0.3834,0.3832,0.3832,0.3778,0.3778,0,0,0,0,0,0,0.3639,0.3642,0.3741,0.3748,0.3712,0.3781,0.3792,0.3803,0.3813,0.3819,0.385,0.3853,0.3844,0.3841,0.3838,0.3838,0.3833,0.3831,0.383,0.3778,0.3778,0.3778,0,0,0,0,0,0,0.3635,0.3646,0.3737,0.3704,0.3718,0.3783,0.3795,0.3805,0.3821,0.3837,0.3839,0.3858,0.3845,0.3841,0.3831,0.3836,0.383,0.3829,0.3778,0.3778,0.3778,0.381,0,0,0,0,0,0,0.3631,0.3644,0.3638,0.3703,0.372,0.3766,0.3795,0.3806,0.3836,0.3841,0.3844,0.3843,0.3846,0.3834,0.3829,0.3833,0.3827,0.3779,0.3778,0.3778,0.381,0.3811,0.3813,0,0,0,0,0,0.3625,0.3621,0.3637,0.3649,0.3714,0.3766,0.3775,0.3821,0.3835,0.3838,0.3847,0.3843,0.3827,0.3832,0.3826,0.383,0.3779,0.3778,0.3778,0.3809,0.3811,0.3813,0,0,0,0,0,0,0.3541,0.3629,0.3647,0.3663,0.3712,0.3778,0.3786,0.3818,0.3827,0.3824,0.3836,0.3835,0.3835,0.3817,0.3822,0.3812,0.3803,0.3801,0.3829,0.383,0.3832,0.3815,0.3825,0,0,0,0,0,0.3524,0.3556,0.3628,0.3638,0.366,0.3719,0.3741,0.3774,0.3804,0.3811,0.382,0.3819,0.3824,0.3817,0.3814,0.3794,0.3774,0.3793,0.3795,0.3796,0.3778,0.3747,0.3744,0.3776,0.3776,0.3776,0,0,0.3497,0.3548,0.3565,0.3625,0.3661,0.3693,0.3733,0.3767,0.3793,0.38,0.3815,0.3824,0.3822,0.3822,0.3817,0.3808,0.3782,0.3795,0.3797,0.3777,0.3746,0.3743,0.3741,0.3775,0.3776,0.3776,0,0,0.347,0.3499,0.3521,0.3563,0.3627,0.3664,0.3675,0.3737,0.3762,0.3782,0.3801,0.3806,0.3809,0.3813,0.3816,0.3811,0.3798,0.3816,0.3802,0.3774,0.3771,0.3768,0.3766,0.3763,0.3809,0.3809,0.3809,0,0.3429,0.3466,0.3529,0.3561,0.3586,0.3651,0.3665,0.3705,0.3757,0.3761,0.3786,0.3798,0.3805,0.3802,0.3817,0.3815,0.3804,0.3802,0.3776,0.3772,0.3769,0.3767,0.3763,0.381,0.381,0.381,0.381,0,0.3442,0.3454,0.3467,0.3532,0.3561,0.3583,0.3652,0.367,0.3707,0.3746,0.3759,0.3779,0.3783,0.3797,0.3813,0.3794,0.3799,0.3791,0.3774,0.3767,0.3767,0.3762,0.3813,0.3812,0.3812,0.3811,0,0,0.3375,0.346,0.3457,0.347,0.3543,0.3566,0.3597,0.3636,0.3651,0.37,0.3708,0.3743,0.376,0.3762,0.3781,0.3763,0.3757,0.3769,0.3767,0.3771,0.3712,0.3667,0.3658,0.3746,0.3744,0.3743,0.3733,0,0.3352,0.3388,0.344,0.345,0.3464,0.352,0.3547,0.359,0.3631,0.3657,0.3687,0.3712,0.3749,0.3757,0.3749,0.3763,0.374,0.3761,0.3712,0.3711,0.3674,0.3648,0.3522,0.3496,0.3728,0.3727,0.3726,0,0.3338,0.3361,0.3368,0.3403,0.3413,0.343,0.3457,0.3496,0.355,0.3584,0.3609,0.3654,0.3673,0.3692,0.3696,0.3711,0.3704,0.3705,0.3704,0.3637,0.3654,0.3532,0.3478,0.3407,0.3718,0.3719,0.372,0,0.3261,0.3299,0.3295,0.3315,0.3375,0.337,0.3398,0.3453,0.3478,0.3532,0.3551,0.3593,0.3605,0.3615,0.3666,0.3673,0.3655,0.3661,0.3604,0.3603,0.3469,0.3457,0.3333,0.3611,0.3611,0.3612,0.3612,0,0.322,0.3207,0.3255,0.326,0.3246,0.3306,0.3303,0.3348,0.3396,0.341,0.3505,0.3516,0.358,0.3604,0.364,0.3621,0.3635,0.3585,0.3581,0.3481,0.347,0.3381,0.3357,0.3611,0.3611,0.3611,0.3611,0,0.3141,0.3176,0.3172,0.3211,0.3213,0.3205,0.3245,0.3251,0.3316,0.333,0.3348,0.3442,0.3481,0.3552,0.3566,0.3566,0.3469,0.3547,0.3446,0.3428,0.3293,0.3275,0.3045,0.2954,0.3468,0.3467,0.3466,0,0.3105,0.3099,0.3126,0.311,0.3121,0.3119,0.3119,0.3193,0.3202,0.3281,0.3274,0.3334,0.337,0.3415,0.3428,0.346,0.3385,0.3331,0.33,0.3244,0.3224,0.3141,0.3076,0.3156,0.3152,0.3149,0.3146,0,0.303,0.3046,0.3059,0.3021,0.3005,0.2999,0.3003,0.3005,0.3081,0.3108,0.3136,0.3175,0.3234,0.3209,0.3255,0.3265,0.3174,0.3268,0.3213,0.2954,0.2848,0.2774,0.3241,0.312,0.3122,0.3124,0.3126,0.3127,0.297,0.2959,0.2961,0.2917,0.2899,0.2852,0.2813,0.2843,0.2844,0.2857,0.2959,0.2969,0.302,0.3073,0.3064,0.2962,0.2968,0.2877,0.2864,0.2789,0.2665,0.3088,0.2961,0.2963,0.2965,0.2966,0.2967,0,0.2863,0.2862,0.2838,0.2781,0.2709,0.2733,0.2707,0.266,0.2623,0.2695,0.2716,0.2715,0.271,0.2749,0.2704,0.2593,0.2497,0.2516,0.2366,0.2325,0.2698,0.265,0.2445,0.2445,0.2445,0.2445,0.2445,0.2446,0.2806,0.2753,0.2742,0.2588,0.2542,0.2419,0.2382,0.2357,0.2381,0.2339,0.2323,0.2365,0.2475,0.2507,0.2405,0.2338,0.2165,0.2048,0.206,0.2345,0.2378,0.2409,0.2358,0.2095,0.2094,0.1597,0.1593,0.1591]},{"header":{"parameterUnit":"m.s-1","parameterCategory":2,"la1":30.2991,"la2":30.254,"lo1":-89.0895,"lo2":-89.0444,"dy":0.0017,"dx":0.0017,"nx":28,"ny":28,"refTime":"2025-11-10T09:00:00:Z","depth":"0","parameterNumber":3,"parameterNumberName":"V-component_of_CURRENTS"},"data":[0,0,0,0,0,0,0,0,0,0,0,0,0,0,0,0,0,0,0,0,0,0,0,0,0,0,0,0,0,0,0,0,0,0,0,0,0,0,0,0,0,0,0,0,0,0,0,0,0,0,0,0,0,0,0,0,0,0,-0.0557,-0.0559,0,-0.0656,-0.0656,-0.0657,-0.0697,-0.0698,-0.0699,-0.0699,-0.073,-0.073,-0.073,0,0,0,0,0,0,0,0,0,0,0,0,0,-0.0379,-0.0382,-0.0557,-0.0559,-0.0561,-0.0656,-0.0656,-0.0657,-0.0697,-0.0698,-0.0699,-0.0699,-0.073,-0.073,-0.073,0,0,0,0,0,0,0,0,0,0,0,0,0,-0.0457,-0.0383,-0.0557,-0.0599,-0.0605,-0.0656,-0.0656,-0.0657,-0.0697,-0.0698,-0.0699,-0.07,-0.073,-0.073,-0.073,-0.0715,0,0,-0.0732,-0.0732,0,0,0,0,0,0,0,0,-0.0452,-0.0462,-0.0591,-0.0597,-0.0603,-0.0673,-0.0605,-0.0676,-0.0697,-0.0653,-0.0699,-0.07,-0.071,-0.0712,-0.0717,-0.0716,-0.0717,-0.0732,-0.0732,-0.0732,-0.0732,0,0,0,0,0,0,0,-0.0447,-0.0458,-0.0587,-0.0593,-0.0601,-0.0606,-0.0617,-0.0618,-0.0667,-0.0657,-0.0662,-0.0687,-0.0711,-0.0716,-0.0718,-0.0718,-0.0732,-0.0732,-0.0732,-0.0732,-0.0662,-0.066,0,0,0,0,0,0,-0.0453,-0.0453,-0.0584,-0.0591,-0.0538,-0.0609,-0.0621,-0.0642,-0.0668,-0.0676,-0.0686,-0.0689,-0.0715,-0.0717,-0.0719,-0.0648,-0.0732,-0.0732,-0.0733,-0.0664,-0.0661,-0.0659,0,0,0,0,0,0,-0.0449,-0.0464,-0.0581,-0.0531,-0.0548,-0.0612,-0.0635,-0.0644,-0.0655,-0.0693,-0.0698,-0.069,-0.0716,-0.0718,-0.0716,-0.0652,-0.0732,-0.0733,-0.0666,-0.0663,-0.066,-0.054,0,0,0,0,0,0,-0.0443,-0.0461,-0.0456,-0.0532,-0.0551,-0.0584,-0.0636,-0.0646,-0.0673,-0.0677,-0.0698,-0.0702,-0.0717,-0.0715,-0.0716,-0.0654,-0.0733,-0.0669,-0.0665,-0.0661,-0.0547,-0.0533,-0.0522,0,0,0,0,0,-0.0436,-0.0424,-0.0455,-0.0471,-0.055,-0.0583,-0.059,-0.0635,-0.0672,-0.0652,-0.0683,-0.0701,-0.069,-0.0714,-0.0716,-0.0652,-0.0671,-0.0666,-0.0662,-0.0552,-0.0536,-0.0522,0,0,0,0,0,0,-0.0324,-0.043,-0.0466,-0.0481,-0.0522,-0.0593,-0.0583,-0.0631,-0.0642,-0.0646,-0.0689,-0.0693,-0.066,-0.068,-0.0706,-0.062,-0.0677,-0.0672,-0.0593,-0.0578,-0.0566,-0.0517,-0.0733,0,0,0,0,0,-0.0306,-0.0333,-0.042,-0.0425,-0.0445,-0.0516,-0.0534,-0.057,-0.0608,-0.0615,-0.0641,-0.0653,-0.0639,-0.0632,-0.0629,-0.0592,-0.06,-0.0548,-0.0535,-0.0524,-0.0485,-0.0439,-0.0418,-0.0644,-0.0644,-0.0644,0,0,-0.0265,-0.0326,-0.0339,-0.0404,-0.044,-0.0434,-0.0525,-0.0544,-0.0527,-0.0614,-0.0586,-0.0615,-0.0623,-0.0575,-0.056,-0.0585,-0.0473,-0.0518,-0.0509,-0.0475,-0.0432,-0.041,-0.039,-0.0641,-0.0641,-0.0642,0,0,-0.0191,-0.0247,-0.0242,-0.027,-0.0331,-0.0368,-0.0375,-0.0445,-0.0456,-0.0456,-0.0497,-0.0488,-0.0496,-0.0469,-0.046,-0.0376,-0.0413,-0.0384,-0.0272,-0.0228,-0.0208,-0.0191,-0.021,-0.0195,-0.0371,-0.0371,-0.0371,0,-0.0131,-0.0146,-0.0235,-0.0227,-0.0232,-0.0333,-0.0299,-0.0319,-0.0376,-0.0359,-0.0425,-0.0396,-0.0426,-0.0327,-0.0311,-0.034,-0.0353,-0.033,-0.0209,-0.0192,-0.0176,-0.02,-0.0185,-0.0364,-0.0365,-0.0366,-0.0366,0,-0.0065,-0.0059,-0.005,-0.0077,-0.0082,-0.0073,-0.0125,-0.0119,-0.0167,-0.0191,-0.014,-0.0187,-0.0162,-0.0171,-0.0225,-0.0113,-0.0175,-0.0205,-0.0244,-0.0146,-0.0178,-0.0165,-0.0355,-0.0358,-0.0359,-0.0361,0,0,0.0028,0.0,0.001,0.0032,-0.0005,-0.0,0.0047,0.0069,0.0115,0.0069,0.0143,0.0137,0.0089,0.0096,0.0043,0.0068,0.0123,-0.0025,-0.0025,-0.0037,0.0176,0.0115,0.0121,0.0108,0.0112,0.0115,0.0095,0,0.0116,0.0167,0.0132,0.0217,0.0244,0.0201,0.0261,0.0272,0.0256,0.0303,0.0279,0.0315,0.02,0.0204,0.0219,0.0152,0.017,0.0129,0.0079,0.0078,0.0018,0.0141,0.0125,0.0106,0.0107,0.0109,0.0111,0,0.0192,0.0218,0.03,0.0362,0.0375,0.0414,0.0492,0.0527,0.0571,0.0564,0.0595,0.0548,0.0584,0.0458,0.0438,0.0409,0.0312,0.0248,0.0245,0.0169,0.0045,0.0016,0.0129,0.0008,0.0131,0.0129,0.0128,0,0.0282,0.0346,0.0417,0.043,0.0478,0.0529,0.0562,0.061,0.0666,0.0724,0.0765,0.0786,0.0779,0.0718,0.0546,0.05,0.0501,0.0423,0.0287,0.0278,0.0251,0.0234,0.0258,0.0439,0.0439,0.0439,0.044,0,0.0372,0.0439,0.0461,0.0496,0.0616,0.0613,0.0737,0.0771,0.0845,0.0934,0.0894,0.0959,0.0841,0.08,0.0648,0.0513,0.0584,0.0349,0.0303,0.0284,0.0271,0.015,0.0065,0.0439,0.0439,0.0439,0.0439,0,0.0451,0.0461,0.055,0.0617,0.0648,0.0724,0.0827,0.0912,0.0961,0.1076,0.1103,0.1104,0.1042,0.0907,0.0787,0.0632,0.0438,0.0444,0.0393,0.0344,0.0096,0.0018,-0.0014,-0.0069,0.0315,0.0314,0.0313,0,0.0493,0.0539,0.0626,0.0684,0.0712,0.0815,0.0891,0.0962,0.1043,0.1159,0.1224,0.1209,0.1199,0.1006,0.0759,0.0539,0.0403,0.0361,0.0291,0.0129,0.0009,-0.0055,-0.0103,0.0273,0.0272,0.0271,0.027,0,0.0584,0.0601,0.0666,0.0766,0.0847,0.0952,0.1052,0.114,0.1224,0.132,0.1412,0.1422,0.1228,0.1007,0.07,0.0537,0.0274,0.0331,0.0215,0.0046,-0.0065,-0.0158,0.0183,0.0261,0.0262,0.0263,0.0263,0.0264,0.0647,0.0701,0.0763,0.0861,0.0952,0.1052,0.114,0.1248,0.1379,0.151,0.1524,0.1559,0.1238,0.0822,0.0596,0.0178,0.0174,0.0036,-0.0031,-0.007,-0.0139,0.0156,0.015,0.0151,0.0151,0.0151,0.0151,0,0.0713,0.076,0.0855,0.0954,0.1037,0.1075,0.1224,0.1306,0.1441,0.1578,0.165,0.1516,0.1125,0.0742,0.0164,-0.0125,-0.022,-0.0269,-0.0341,-0.0362,-0.0046,-0.0063,-0.0175,-0.0175,-0.0175,-0.0175,-0.0175,-0.0175,0.075,0.0829,0.086,0.0988,0.1056,0.116,0.1234,0.1371,0.1494,0.1632,0.1668,0.1672,0.1353,0.0373,-0.0266,-0.0401,-0.0589,-0.0654,-0.0728,-0.0512,-0.0488,-0.0465,-0.0497,-0.0698,-0.0699,-0.1007,-0.1011,-0.1013]}],[{"header":{"parameterUnit":"m.s-1","parameterCategory":2,"la1":30.2991,"la2":30.254,"lo1":-89.0895,"lo2":-89.0444,"dy":0.0017,"dx":0.0017,"nx":28,"ny":28,"refTime":"2025-11-10T09:00:00:Z","depth":"2","parameterNumber":2,"parameterNumberName":"U-component_of_CURRENTS"},"data":[0,0,0,0,0,0,0,0,0,0,0,0,0,0,0,0,0,0,0,0,0,0,0,0,0,0,0,0,0,0,0,0,0,0,0,0,0,0,0,0,0,0,0,0,0,0,0,0,0,0,0,0,0,0,0,0,0,0,0.2303,0.2302,0,0.2301,0.2302,0.2303,0.238,0.2381,0.2382,0.2383,0.2379,0.2378,0.2377,0,0,0,0,0,0,0,0,0,0,0,0,0,0.2355,0.2355,0.2303,0.2302,0.2301,0.23,0.2302,0.2303,0.238,0.2381,0.2382,0.2383,0.2379,0.2378,0.2377,0,0,0,0,0,0,0,0,0,0,0,0,0,0.2354,0.2355,0.2303,0.2329,0.2331,0.23,0.2302,0.2303,0.238,0.2381,0.2382,0.2383,0.238,0.2378,0.2377,0.2344,0,0,0.2373,0.2372,0,0,0,0,0,0,0,0,0.2354,0.2353,0.2327,0.2327,0.2328,0.233,0.2318,0.2312,0.2379,0.2375,0.2383,0.2384,0.2353,0.2354,0.237,0.2343,0.2343,0.2373,0.2372,0.2371,0.2371,0,0,0,0,0,0,0,0.2354,0.2353,0.2316,0.2325,0.2326,0.2333,0.2336,0.2318,0.2367,0.2376,0.2378,0.2356,0.2355,0.2371,0.237,0.2343,0.2373,0.2372,0.2371,0.237,0.2404,0.2406,0,0,0,0,0,0,0.2326,0.2354,0.2316,0.2314,0.2329,0.233,0.2334,0.2339,0.2368,0.2369,0.2355,0.2359,0.2373,0.2371,0.237,0.2419,0.2371,0.237,0.2369,0.2402,0.2404,0.2406,0,0,0,0,0,0,0.2328,0.2324,0.2315,0.2322,0.2319,0.2327,0.2333,0.2338,0.2377,0.2349,0.2354,0.2388,0.2373,0.2372,0.2391,0.2416,0.237,0.2368,0.24,0.2403,0.2405,0.2461,0,0,0,0,0,0,0.233,0.2326,0.2335,0.2321,0.2317,0.2307,0.233,0.2337,0.2353,0.236,0.2378,0.2379,0.2374,0.2393,0.239,0.2413,0.2367,0.2398,0.2401,0.2404,0.2457,0.2465,0.2472,0,0,0,0,0,0.2333,0.2327,0.2337,0.2331,0.2326,0.2306,0.2308,0.2325,0.2353,0.2368,0.2397,0.2379,0.2411,0.2393,0.2389,0.2412,0.2397,0.2401,0.2404,0.2453,0.2463,0.2471,0,0,0,0,0,0,0.234,0.2333,0.2343,0.2334,0.2324,0.2314,0.2326,0.2335,0.2372,0.2399,0.2391,0.2392,0.2415,0.2409,0.2389,0.2435,0.2404,0.2407,0.2443,0.2452,0.2459,0.2433,0.2366,0,0,0,0,0,0.2344,0.2347,0.2335,0.2322,0.2334,0.2339,0.2339,0.2353,0.2365,0.2386,0.2385,0.2405,0.2422,0.2435,0.2434,0.2453,0.2438,0.2471,0.2478,0.2484,0.2463,0.2487,0.2494,0.2419,0.2419,0.2418,0,0,0.2332,0.2328,0.2327,0.2324,0.2336,0.2345,0.2349,0.236,0.2379,0.2375,0.2412,0.2418,0.2431,0.246,0.2472,0.2463,0.2501,0.2489,0.2494,0.2468,0.2491,0.2498,0.2504,0.2421,0.2421,0.242,0,0,0.2315,0.2328,0.2344,0.234,0.2349,0.2357,0.2364,0.2373,0.2407,0.2438,0.2442,0.2465,0.2488,0.2496,0.251,0.2555,0.253,0.2565,0.2589,0.2614,0.262,0.2625,0.2622,0.2626,0.2581,0.2581,0.2581,0,0.2312,0.2323,0.2337,0.2348,0.2343,0.2367,0.2382,0.2412,0.2419,0.2436,0.2465,0.2503,0.2509,0.2539,0.2564,0.2569,0.257,0.2554,0.2622,0.2627,0.263,0.2627,0.263,0.2584,0.2583,0.2583,0.2583,0,0.23,0.2322,0.2328,0.2361,0.2362,0.2371,0.2402,0.2423,0.2472,0.249,0.2537,0.2562,0.2585,0.2599,0.26,0.2627,0.2614,0.2619,0.2595,0.2641,0.2635,0.2638,0.2588,0.2587,0.2586,0.2585,0,0,0.2273,0.232,0.2324,0.2337,0.2374,0.2361,0.2415,0.2448,0.2486,0.2527,0.2563,0.2612,0.2626,0.264,0.2645,0.2662,0.2698,0.2656,0.2656,0.2643,0.2737,0.2675,0.2671,0.2723,0.2723,0.2724,0.2723,0,0.2274,0.2289,0.2321,0.2332,0.2347,0.238,0.241,0.244,0.2512,0.2548,0.2597,0.2639,0.265,0.2675,0.2699,0.2689,0.2707,0.2695,0.27,0.2699,0.2631,0.2673,0.2489,0.2469,0.2726,0.2726,0.2727,0,0.2258,0.2272,0.2291,0.2318,0.2332,0.2338,0.2387,0.2428,0.2499,0.256,0.2623,0.2661,0.2691,0.2705,0.2735,0.2732,0.2734,0.2729,0.273,0.2645,0.2642,0.2464,0.2464,0.2731,0.273,0.273,0.273,0,0.2199,0.2245,0.2255,0.2256,0.2299,0.2313,0.2344,0.2418,0.2467,0.2565,0.2609,0.2674,0.2706,0.2733,0.2753,0.2751,0.2768,0.2774,0.2715,0.271,0.2535,0.2514,0.2787,0.2787,0.2787,0.2787,0.2787,0,0.2159,0.2164,0.2222,0.2212,0.2234,0.2269,0.2322,0.2377,0.2455,0.2497,0.2607,0.2648,0.2716,0.2746,0.2757,0.2745,0.2791,0.2706,0.2708,0.2551,0.2532,0.2741,0.2736,0.2787,0.2787,0.2787,0.2787,0,0.2075,0.2121,0.2136,0.2185,0.2208,0.2215,0.2297,0.232,0.2422,0.2481,0.2506,0.2618,0.2667,0.2719,0.2752,0.2739,0.2739,0.272,0.2519,0.2496,0.2657,0.2655,0.2649,0.2647,0.2645,0.2644,0.2643,0,0.2037,0.2028,0.2102,0.2119,0.2145,0.2182,0.2199,0.2295,0.2325,0.2453,0.2447,0.2537,0.258,0.2623,0.2623,0.2631,0.2691,0.2446,0.2407,0.2641,0.2644,0.2645,0.2645,0.2201,0.2196,0.2192,0.2189,0,0.196,0.199,0.201,0.2043,0.2065,0.2092,0.2126,0.2142,0.2238,0.2287,0.2338,0.2386,0.2456,0.239,0.2418,0.2402,0.2435,0.2365,0.2668,0.227,0.222,0.2223,0.2237,0.2154,0.2157,0.216,0.2162,0.2163,0.1924,0.1906,0.1935,0.1955,0.1986,0.1972,0.1963,0.1987,0.2013,0.205,0.2162,0.2173,0.2217,0.217,0.2112,0.2082,0.225,0.2153,0.2165,0.218,0.2134,0.2084,0.1983,0.1985,0.1987,0.1989,0.1991,0,0.1833,0.1818,0.1834,0.1844,0.1824,0.1881,0.1879,0.1833,0.1809,0.1876,0.1915,0.1789,0.177,0.1817,0.172,0.1728,0.1712,0.1657,0.1615,0.1653,0.1685,0.1612,0.1323,0.1321,0.1319,0.1316,0,0,0.179,0.1749,0.1737,0.1683,0.169,0.162,0.1605,0.1557,0.1571,0.1534,0.1537,0.1695,0.1769,0.1514,0.1494,0.1385,0.1504,0.1337,0.1881,0.187,0.1899,0.1989,0.1922,0,0,0,0,0]},{"header":{"parameterUnit":"m.s-1","parameterCategory":2,"la1":30.2991,"la2":30.254,"lo1":-89.0895,"lo2":-89.0444,"dy":0.0017,"dx":0.0017,"nx":28,"ny":28,"refTime":"2025-11-10T09:00:00:Z","depth":"2","parameterNumber":3,"parameterNumberName":"V-component_of_CURRENTS"},"data":[0,0,0,0,0,0,0,0,0,0,0,0,0,0,0,0,0,0,0,0,0,0,0,0,0,0,0,0,0,0,0,0,0,0,0,0,0,0,0,0,0,0,0,0,0,0,0,0,0,0,0,0,0,0,0,0,0,0,0.0342,0.0342,0,0.0292,0.029,0.0289,0.0227,0.0226,0.0226,0.0226,0.0152,0.015,0.0149,0,0,0,0,0,0,0,0,0,0,0,0,0,0.032,0.0321,0.0342,0.0341,0.0341,0.0292,0.029,0.0289,0.0227,0.0226,0.0226,0.0225,0.0152,0.015,0.0149,0,0,0,0,0,0,0,0,0,0,0,0,0,0.03,0.0321,0.0342,0.0309,0.0306,0.0292,0.029,0.0289,0.0227,0.0226,0.0226,0.0225,0.0153,0.0151,0.0148,0.0146,0,0,0.0141,0.014,0,0,0,0,0,0,0,0,0.0301,0.03,0.0314,0.0311,0.0308,0.027,0.0256,0.0242,0.0227,0.025,0.0226,0.0225,0.0194,0.0188,0.0171,0.0143,0.014,0.0141,0.0139,0.0138,0.0138,0,0,0,0,0,0,0,0.0303,0.0301,0.0315,0.0314,0.0311,0.0276,0.0272,0.0252,0.0221,0.0248,0.0245,0.025,0.0191,0.0174,0.0169,0.0139,0.0141,0.0139,0.0137,0.0136,0.0082,0.0082,0,0,0,0,0,0,0.0326,0.0303,0.0317,0.0314,0.031,0.0277,0.0273,0.0278,0.0222,0.0214,0.0251,0.0247,0.0178,0.0172,0.0166,0.0154,0.0138,0.0136,0.0135,0.0082,0.0082,0.0082,0,0,0,0,0,0,0.0325,0.0327,0.0319,0.0312,0.031,0.028,0.0285,0.0277,0.0256,0.0225,0.0215,0.0238,0.0177,0.017,0.0149,0.0151,0.0135,0.0133,0.0082,0.0082,0.0082,0.0133,0,0,0,0,0,0,0.0325,0.0328,0.0318,0.0314,0.0311,0.032,0.0286,0.0277,0.0264,0.0259,0.0211,0.0204,0.0176,0.0153,0.0147,0.0147,0.0131,0.0082,0.0082,0.0082,0.0131,0.0134,0.0137,0,0,0,0,0,0.0324,0.0326,0.0318,0.0319,0.0307,0.0322,0.0316,0.0288,0.0264,0.0263,0.0227,0.0205,0.0148,0.0151,0.0144,0.0144,0.0082,0.0082,0.0082,0.013,0.0134,0.0137,0,0,0,0,0,0,0.0311,0.0321,0.0311,0.0314,0.0322,0.0314,0.0303,0.0291,0.0259,0.0241,0.0208,0.0199,0.0181,0.0156,0.0161,0.0127,0.011,0.0109,0.0149,0.0152,0.0155,0.0175,0.0129,0,0,0,0,0,0.0308,0.0314,0.0321,0.0327,0.0328,0.0314,0.0308,0.0295,0.0279,0.0262,0.024,0.0203,0.0176,0.016,0.0135,0.012,0.0096,0.0113,0.0116,0.0119,0.0129,0.0092,0.0093,0.0082,0.0082,0.0082,0,0,0.0313,0.0314,0.032,0.0325,0.0319,0.033,0.0307,0.0305,0.0307,0.0261,0.0247,0.0217,0.0175,0.0156,0.0145,0.0135,0.0108,0.0119,0.0121,0.013,0.0092,0.0093,0.0094,0.0082,0.0082,0.0082,0,0,0.0333,0.032,0.0332,0.0338,0.0337,0.0331,0.0337,0.0332,0.0315,0.0306,0.0269,0.0245,0.0208,0.0181,0.016,0.0166,0.0129,0.0153,0.0182,0.0146,0.0147,0.0147,0.0118,0.0116,0.0151,0.0151,0.0151,0,0.0331,0.0349,0.0339,0.0351,0.036,0.0339,0.0359,0.0342,0.0332,0.0327,0.0307,0.0254,0.0219,0.0195,0.0194,0.0174,0.0149,0.0173,0.0151,0.0151,0.0151,0.0121,0.0117,0.0154,0.0153,0.0153,0.0153,0,0.0368,0.0373,0.0383,0.0392,0.0397,0.0412,0.0404,0.0397,0.0375,0.0365,0.0342,0.0295,0.0269,0.0247,0.022,0.0202,0.0185,0.0163,0.0146,0.0155,0.0123,0.0118,0.0157,0.0156,0.0155,0.0155,0,0,0.0389,0.0406,0.0409,0.042,0.0419,0.0436,0.0432,0.0437,0.044,0.0407,0.0411,0.0356,0.0335,0.031,0.0272,0.0236,0.0209,0.0203,0.02,0.0182,0.0133,0.0112,0.0105,0.0181,0.0181,0.018,0.0112,0,0.042,0.0456,0.0454,0.049,0.0507,0.0491,0.0499,0.0491,0.0477,0.0474,0.0415,0.0402,0.0357,0.0344,0.0302,0.0235,0.0199,0.0229,0.012,0.0118,0.0103,0.01,0.0127,0.0068,0.0108,0.0107,0.0106,0,0.0453,0.0473,0.0515,0.0539,0.0546,0.0562,0.0575,0.0581,0.056,0.0548,0.0521,0.0481,0.0432,0.0388,0.0279,0.03,0.0227,0.0167,0.0163,0.0125,0.0088,0.0064,0.0058,0.0099,0.0099,0.01,0.01,0,0.0479,0.0514,0.055,0.0561,0.0582,0.0595,0.0607,0.0603,0.0619,0.0603,0.0608,0.0541,0.0509,0.041,0.0289,0.0283,0.0163,0.0137,0.0049,0.0047,0.0041,0.0039,0.0062,0.0062,0.0062,0.0062,0.0062,0,0.0511,0.0539,0.0566,0.0588,0.0632,0.0632,0.0676,0.0677,0.0684,0.071,0.0654,0.0651,0.0512,0.0426,0.031,0.0169,0.0178,0.0058,0.0028,0.0058,0.0059,0.0062,0.0063,0.0059,0.006,0.0061,0.0061,0,0.0532,0.055,0.0592,0.0628,0.0646,0.0677,0.0732,0.076,0.0763,0.0793,0.079,0.073,0.0621,0.0476,0.0311,0.0202,0.0066,0.0014,0.0063,0.0039,-0.0031,-0.0027,-0.0089,-0.009,-0.0091,-0.0092,-0.0093,0,0.0548,0.0571,0.0628,0.066,0.068,0.0732,0.0768,0.0796,0.0831,0.0841,0.0853,0.077,0.0718,0.0475,0.0273,0.0071,0.0048,-0.004,-0.005,-0.0023,-0.0047,-0.004,-0.0035,-0.0039,-0.004,-0.004,-0.004,0,0.0576,0.0593,0.0632,0.0697,0.0745,0.0807,0.0862,0.0906,0.0932,0.0956,0.0962,0.0924,0.0708,0.0511,0.024,0.0106,-0.0006,-0.0052,-0.0042,-0.0004,0.0018,-0.0003,0.0002,-0.0042,-0.0042,-0.0042,-0.0042,-0.0042,0.0595,0.0625,0.0673,0.0735,0.0794,0.0864,0.0925,0.098,0.1042,0.108,0.1041,0.0993,0.0774,0.0434,0.0202,-0.0032,-0.0025,-0.0106,-0.0103,-0.0101,-0.0081,-0.0062,-0.0134,-0.0134,-0.0134,-0.0134,-0.0135,0,0.0608,0.0648,0.0708,0.0779,0.0841,0.0875,0.0972,0.1028,0.1105,0.1135,0.114,0.0933,0.0719,0.0472,0.0126,-0.0089,-0.0094,-0.0154,-0.0109,-0.0105,-0.0102,-0.0081,-0.0135,-0.0136,-0.0136,-0.0137,0,0,0.0618,0.067,0.07,0.0798,0.0854,0.0945,0.1008,0.1091,0.1143,0.1169,0.1149,0.1101,0.0798,0.0548,0.0261,0.0064,0.003,0.0026,0.005,0.0142,0.0147,-0.0052,-0.0013,0,0,0,0,0]}],[{"header":{"parameterUnit":"m.s-1","parameterCategory":2,"la1":30.2991,"la2":30.254,"lo1":-89.0895,"lo2":-89.0444,"dy":0.0017,"dx":0.0017,"nx":28,"ny":28,"refTime":"2025-11-10T09:00:00:Z","depth":"4","parameterNumber":2,"parameterNumberName":"U-component_of_CURRENTS"},"data":[0,0,0,0,0,0,0,0,0,0,0,0,0,0,0,0,0,0,0,0,0,0,0,0,0,0,0,0,0,0,0,0,0,0,0,0,0,0,0,0,0,0,0,0,0,0,0,0,0,0,0,0,0,0,0,0,0,0,0.0958,0.0958,0,0.1001,0.1001,0.1002,0.1047,0.1048,0.1048,0.1049,0.1156,0.1158,0.1161,0,0,0,0,0,0,0,0,0,0,0,0,0,0.0929,0.0929,0.0957,0.0958,0.0959,0.1001,0.1001,0.1002,0.1047,0.1048,0.1049,0.1049,0.1156,0.1158,0.1161,0,0,0,0,0,0,0,0,0,0,0,0,0,0.0953,0.0929,0.0957,0.0987,0.099,0.1001,0.1001,0.1002,0.1047,0.1048,0.1049,0.105,0.1155,0.1158,0.1161,0.116,0,0,0.1171,0.1172,0,0,0,0,0,0,0,0,0.0951,0.0953,0.0982,0.0985,0.0989,0.102,0.103,0.1058,0.1046,0.1024,0.1049,0.105,0.1117,0.1123,0.1126,0.1165,0.1169,0.1171,0.1173,0.1175,0.1176,0,0,0,0,0,0,0,0.0949,0.0952,0.0974,0.0983,0.0987,0.1003,0.1008,0.1036,0.1064,0.1026,0.103,0.1036,0.1119,0.1123,0.113,0.1171,0.1171,0.1174,0.1176,0.1177,0.134,0.1342,0,0,0,0,0,0,0.0944,0.095,0.0972,0.0975,0.0973,0.1003,0.1008,0.1008,0.1063,0.1072,0.1035,0.1038,0.1117,0.1126,0.1134,0.124,0.1175,0.1178,0.118,0.1337,0.134,0.1343,0,0,0,0,0,0,0.0943,0.0945,0.0971,0.0965,0.0969,0.1002,0.1003,0.1009,0.1047,0.1069,0.1079,0.1071,0.1118,0.1129,0.12,0.1241,0.1179,0.1182,0.1335,0.1338,0.1342,0.1386,0,0,0,0,0,0,0.0942,0.0944,0.0965,0.0964,0.097,0.1004,0.1002,0.1009,0.1047,0.1052,0.1102,0.1111,0.112,0.1195,0.1203,0.1244,0.1185,0.1332,0.1336,0.134,0.1381,0.139,0.1398,0,0,0,0,0,0.0941,0.0954,0.0966,0.097,0.0989,0.1005,0.101,0.1036,0.1048,0.1073,0.1114,0.1111,0.1229,0.1199,0.1208,0.1251,0.133,0.1335,0.134,0.1378,0.1389,0.1398,0,0,0,0,0,0,0.0957,0.096,0.0973,0.0989,0.1011,0.1014,0.1039,0.1054,0.1102,0.1119,0.1138,0.1151,0.1226,0.1237,0.1204,0.1314,0.128,0.1287,0.1306,0.1316,0.1324,0.1307,0.1188,0,0,0,0,0,0.0968,0.0979,0.0988,0.1008,0.1017,0.1035,0.1052,0.1071,0.1101,0.1124,0.1156,0.1201,0.1248,0.1282,0.1317,0.1376,0.1371,0.1413,0.1421,0.1428,0.1422,0.1461,0.1472,0.136,0.136,0.136,0,0,0.0972,0.0985,0.0987,0.1014,0.1029,0.1053,0.1049,0.1083,0.1116,0.1128,0.1195,0.123,0.127,0.1337,0.1373,0.1357,0.1458,0.1435,0.144,0.143,0.1468,0.1478,0.1487,0.1364,0.1363,0.1363,0,0,0.0985,0.1005,0.1018,0.1039,0.1076,0.1089,0.1107,0.1131,0.1159,0.1221,0.1243,0.1303,0.137,0.1405,0.1431,0.1509,0.1497,0.1532,0.1565,0.1603,0.1612,0.1619,0.162,0.1627,0.154,0.1541,0.1541,0,0.1004,0.1016,0.1029,0.1056,0.1076,0.1109,0.1133,0.1166,0.1218,0.1245,0.1255,0.1364,0.1398,0.1478,0.1509,0.1526,0.1534,0.1519,0.1611,0.1619,0.1626,0.1625,0.1632,0.1543,0.1543,0.1543,0.1542,0,0.1014,0.1044,0.1055,0.1097,0.1127,0.1154,0.1192,0.1243,0.1282,0.1308,0.1394,0.1441,0.1506,0.1534,0.1547,0.1625,0.1609,0.1611,0.1577,0.1639,0.1635,0.1642,0.1547,0.1546,0.1545,0.1545,0,0,0.1009,0.1051,0.1063,0.109,0.115,0.1173,0.124,0.1296,0.1347,0.1406,0.1465,0.1548,0.1572,0.1604,0.1635,0.167,0.1727,0.1668,0.1668,0.1652,0.1792,0.1682,0.1678,0.1751,0.1752,0.1754,0.1766,0,0.1022,0.1064,0.1087,0.1146,0.1169,0.1222,0.128,0.1345,0.1402,0.1471,0.1525,0.1597,0.1601,0.1649,0.1686,0.1722,0.1749,0.1721,0.1748,0.1748,0.163,0.1685,0.1759,0.177,0.1772,0.1773,0.1774,0,0.1025,0.1061,0.1103,0.117,0.1186,0.1235,0.1333,0.139,0.1488,0.1533,0.1607,0.1646,0.1724,0.1716,0.1789,0.1776,0.1788,0.1798,0.18,0.1682,0.1651,0.17,0.1786,0.1785,0.1784,0.1783,0.1782,0,0.1004,0.1072,0.1107,0.1129,0.1213,0.1259,0.1317,0.1414,0.1469,0.1581,0.1631,0.1713,0.1773,0.1805,0.1832,0.1825,0.1887,0.1879,0.1782,0.1773,0.1845,0.1837,0.192,0.192,0.192,0.192,0.192,0,0.099,0.1028,0.1107,0.1127,0.1199,0.1261,0.1344,0.1418,0.152,0.158,0.1667,0.1719,0.1804,0.1845,0.1851,0.183,0.1906,0.1785,0.1775,0.1864,0.1858,0.1849,0.1841,0.192,0.192,0.192,0.192,0,0.0946,0.0997,0.1048,0.1144,0.1186,0.1239,0.1353,0.1405,0.1517,0.16,0.164,0.1748,0.1798,0.1845,0.1898,0.1848,0.1842,0.1815,0.189,0.1885,0.1692,0.1686,0.1699,0.1696,0.1693,0.169,0.1688,0,0.0916,0.0937,0.1047,0.1088,0.1135,0.1225,0.1281,0.1399,0.1446,0.1594,0.1618,0.1716,0.1769,0.1744,0.1805,0.1798,0.1783,0.1759,0.1733,0.1683,0.1673,0.1672,0.1671,0.1683,0.1682,0.1681,0.1681,0,0.0864,0.091,0.0952,0.1038,0.1106,0.1165,0.1251,0.128,0.1406,0.1518,0.1563,0.1594,0.1645,0.1673,0.1686,0.1678,0.1763,0.1726,0.1732,0.1708,0.1663,0.1657,0.1659,0.167,0.1671,0.1672,0.1673,0,0.0834,0.084,0.0905,0.0974,0.1051,0.1082,0.1136,0.1192,0.126,0.142,0.1427,0.1526,0.1625,0.1611,0.1617,0.1608,0.1584,0.1529,0.1545,0.1558,0.1507,0.143,0.1357,0,0,0,0,0,0.0801,0.0796,0.0838,0.0899,0.0965,0.1011,0.1106,0.1159,0.1281,0.1278,0.1353,0.1391,0.1422,0.1472,0.1433,0.1548,0.1583,0.1495,0.1526,0.1611,0.1623,0.1577,0,0,0,0,0,0,0.0779,0.0807,0.0806,0.0825,0.0849,0.0906,0.0958,0.1038,0.1046,0.1177,0.1201,0.1304,0.1351,0.1427,0.1405,0.142,0.141,0.1562,0.1558,0.1604,0.1615,0.1625,0.1582,0,0,0,0,0]},{"header":{"parameterUnit":"m.s-1","parameterCategory":2,"la1":30.2991,"la2":30.254,"lo1":-89.0895,"lo2":-89.0444,"dy":0.0017,"dx":0.0017,"nx":28,"ny":28,"refTime":"2025-11-10T09:00:00:Z","depth":"4","parameterNumber":3,"parameterNumberName":"V-component_of_CURRENTS"},"data":[0,0,0,0,0,0,0,0,0,0,0,0,0,0,0,0,0,0,0,0,0,0,0,0,0,0,0,0,0,0,0,0,0,0,0,0,0,0,0,0,0,0,0,0,0,0,0,0,0,0,0,0,0,0,0,0,0,0,0.0376,0.0376,0,0.0371,0.0371,0.0371,0.0362,0.0362,0.0362,0.0362,0.0307,0.0306,0.0305,0,0,0,0,0,0,0,0,0,0,0,0,0,0.0367,0.0367,0.0376,0.0376,0.0376,0.0371,0.0371,0.0371,0.0362,0.0362,0.0362,0.0362,0.0308,0.0306,0.0305,0,0,0,0,0,0,0,0,0,0,0,0,0,0.0367,0.0368,0.0376,0.0372,0.0371,0.0371,0.0371,0.0371,0.0362,0.0362,0.0362,0.0362,0.0308,0.0306,0.0304,0.0296,0,0,0.0298,0.0297,0,0,0,0,0,0,0,0,0.0367,0.0368,0.0372,0.0372,0.0371,0.0367,0.0348,0.0343,0.0362,0.0365,0.0362,0.0362,0.0323,0.032,0.032,0.0293,0.0291,0.0298,0.0297,0.0296,0.0295,0,0,0,0,0,0,0,0.0367,0.0368,0.0374,0.0372,0.0372,0.0366,0.0366,0.0347,0.0344,0.0365,0.0365,0.0365,0.0323,0.0322,0.0318,0.029,0.0298,0.0296,0.0295,0.0294,0.0233,0.0232,0,0,0,0,0,0,0.0369,0.0368,0.0374,0.0374,0.0369,0.0366,0.0366,0.0369,0.0345,0.0342,0.0365,0.0364,0.0325,0.0321,0.0316,0.0293,0.0296,0.0294,0.0293,0.0233,0.0232,0.0232,0,0,0,0,0,0,0.0369,0.037,0.0374,0.0371,0.0371,0.0367,0.037,0.0369,0.0372,0.0346,0.0342,0.037,0.0325,0.0319,0.0299,0.0291,0.0293,0.0291,0.0234,0.0233,0.0232,0.0253,0,0,0,0,0,0,0.0369,0.037,0.0371,0.0371,0.0371,0.0377,0.037,0.0369,0.0372,0.0372,0.0349,0.0343,0.0324,0.0302,0.0297,0.0288,0.029,0.0234,0.0233,0.0232,0.0253,0.0253,0.0253,0,0,0,0,0,0.0369,0.0373,0.0372,0.0372,0.0373,0.0377,0.0377,0.0372,0.0373,0.0375,0.0356,0.0344,0.0293,0.03,0.0294,0.0285,0.0234,0.0233,0.0233,0.0253,0.0253,0.0253,0,0,0,0,0,0,0.0365,0.0372,0.0371,0.0375,0.0377,0.0376,0.0379,0.0378,0.0367,0.0364,0.0342,0.0335,0.0314,0.0297,0.0305,0.0263,0.026,0.0258,0.0277,0.0277,0.0277,0.0274,0.0288,0,0,0,0,0,0.0366,0.0373,0.0376,0.0379,0.0383,0.0383,0.0384,0.0381,0.0373,0.0369,0.0353,0.0329,0.0305,0.029,0.0269,0.0248,0.0219,0.0236,0.0237,0.0237,0.023,0.0173,0.0168,0.0229,0.0229,0.0229,0,0,0.0367,0.0369,0.0375,0.0379,0.0382,0.0385,0.0384,0.0388,0.0382,0.0363,0.0351,0.0333,0.03,0.0276,0.0264,0.0261,0.0208,0.0236,0.0237,0.0229,0.0172,0.0166,0.016,0.0228,0.0228,0.0228,0,0,0.0371,0.0376,0.0384,0.0386,0.039,0.0388,0.0392,0.0393,0.0387,0.0375,0.0355,0.033,0.0305,0.0272,0.0253,0.0241,0.0214,0.0238,0.0233,0.0179,0.0173,0.0168,0.0138,0.013,0.0235,0.0235,0.0235,0,0.0368,0.0378,0.0386,0.039,0.0391,0.0393,0.0396,0.039,0.038,0.0368,0.0373,0.0318,0.0297,0.025,0.0248,0.024,0.0215,0.0238,0.0179,0.0173,0.0167,0.0138,0.0128,0.0236,0.0236,0.0236,0.0236,0,0.0377,0.0383,0.0389,0.0395,0.0397,0.04,0.0395,0.039,0.0387,0.0374,0.034,0.0309,0.0274,0.0264,0.0254,0.0202,0.0201,0.019,0.018,0.0162,0.0133,0.0122,0.0237,0.0237,0.0237,0.0236,0,0,0.0373,0.0391,0.0394,0.0397,0.0398,0.0403,0.0392,0.038,0.0369,0.0349,0.0326,0.0283,0.027,0.0247,0.0225,0.0179,0.0128,0.0172,0.0169,0.0146,0.0023,0.0047,0.0039,0.0107,0.0105,0.0104,0.0025,0,0.0375,0.0389,0.0395,0.0402,0.0408,0.0402,0.0394,0.038,0.0365,0.0343,0.0299,0.0275,0.0262,0.0251,0.0199,0.0148,0.01,0.0151,0.0041,0.0038,0.0063,0.0026,0.0097,0.0017,0.0015,0.0013,0.0012,0,0.0378,0.0389,0.0402,0.0407,0.041,0.0413,0.04,0.0393,0.0357,0.0345,0.0304,0.0278,0.0216,0.0211,0.0094,0.013,0.0077,0.0034,0.0029,0.0034,0.0042,0.0033,-0.0007,-0.0005,-0.0004,-0.0003,-0.0001,0,0.0376,0.039,0.0403,0.0405,0.0412,0.0413,0.0417,0.0394,0.0392,0.035,0.0344,0.0261,0.0236,0.0142,0.0069,0.0076,-0.0056,-0.0061,-0.0095,-0.0093,-0.0098,-0.0092,-0.0158,-0.0158,-0.0158,-0.0158,-0.0158,0,0.0369,0.0379,0.0407,0.0414,0.0428,0.0428,0.0435,0.0423,0.0409,0.0408,0.0353,0.0332,0.0218,0.0141,0.0058,-0.0043,-0.0069,-0.0107,-0.0122,-0.0085,-0.0076,-0.0105,-0.0097,-0.0161,-0.016,-0.0159,-0.0159,0,0.036,0.0379,0.0396,0.0418,0.043,0.0442,0.0472,0.0473,0.0459,0.0456,0.0449,0.0379,0.0283,0.0169,0.0023,-0.004,-0.0149,-0.0178,-0.0116,-0.0124,-0.0147,-0.0138,-0.0237,-0.0237,-0.0237,-0.0237,-0.0237,0,0.0355,0.0366,0.0408,0.0431,0.0446,0.0473,0.0494,0.05,0.051,0.0489,0.0488,0.0406,0.0348,0.0164,0.0038,-0.0132,-0.015,-0.0207,-0.0197,-0.0156,-0.0161,-0.0151,-0.0142,-0.0237,-0.0237,-0.0237,-0.0237,0,0.0344,0.0366,0.0386,0.0439,0.0473,0.0508,0.0543,0.0558,0.0564,0.0553,0.0523,0.0431,0.0326,0.018,0.0053,-0.007,-0.0175,-0.0208,-0.0209,-0.02,-0.0157,-0.016,-0.0151,-0.0237,-0.0237,-0.0237,-0.0237,0,0.034,0.0355,0.0396,0.044,0.0488,0.0532,0.055,0.0572,0.0586,0.0572,0.0562,0.0449,0.0384,0.0213,0.0092,-0.0024,-0.0055,-0.0095,-0.0102,-0.0104,-0.0039,0.0036,-0.0008,0,0,0,0,0,0.0332,0.0357,0.0395,0.0447,0.0497,0.0531,0.0577,0.0592,0.0608,0.0596,0.0584,0.0491,0.0322,0.0244,0.0132,0.0077,-0.0087,-0.0059,-0.0138,-0.0237,-0.0237,-0.0182,0,0,0,0,0,0,0.0329,0.0365,0.0389,0.0449,0.0489,0.0545,0.0581,0.0592,0.059,0.0589,0.0503,0.0464,0.0297,0.0387,0.0131,0.0094,0.0029,-0.0138,-0.0141,-0.0238,-0.0237,-0.0237,-0.0181,0,0,0,0,0]}]]